EW7619 Weather Reports


time (UTC)temp
C
wind
direction
speed
KPH
gust
KPH
rain 1hr
cm
rain 24hr
cm
rain mn
cm
humidity
%
barometer
mb
20260506104015 15 0.0 0.0 0.00 0.00 0.00 60 1008.2
20260506103016 15 0.0 0.0 0.00 0.00 0.00 60 1008.1
20260506102015 15 0.0 0.0 0.00 0.00 0.00 59 1008.1
20260506101016 15 0.0 0.0 0.00 0.00 0.00 59 1008.1
20260506100015 15 0.0 0.0 0.00 0.00 0.00 59 1008.1
20260506095020 15 0.0 0.0 0.00 0.00 0.00 59 1008.2
20260506094016 15 0.0 0.0 0.00 0.00 0.00 59 1008.1
20260506093047 16 0.0 0.0 0.00 0.00 0.00 58 1008.1
20260506092136 16 0.0 0.0 0.00 0.00 0.00 58 1008.1
20260506091022 16 0.0 0.0 0.00 0.00 0.00 58 1008.2
20260506090044 16 0.0 0.0 0.00 0.00 0.00 57 1008.3
20260506085114 16 0.0 0.0 0.00 0.00 0.00 57 1008.3
20260506084040 16 0.0 0.0 0.00 0.00 0.00 57 1008.4
20260506083018 16 0.0 0.0 0.00 0.00 0.00 56 1008.4
20260506082052 16 0.0 0.0 0.00 0.00 0.00 56 1008.5
20260506081052 16 0.0 0.0 0.00 0.00 0.00 56 1008.6
20260506072222 17 0.0 0.0 0.00 0.00 0.00 53 1008.6
20260506071017 17 0.0 0.0 0.00 0.00 0.00 52 1008.6
20260506062015 17 0.0 0.0 0.00 0.00 0.00 50 1008.5
20260506061015 17 0.0 0.0 0.00 0.00 0.00 49 1008.5
20260506051037 19 0.0 0.0 0.00 0.00 0.00 44 1008.2
20260506045052 19 0.0 0.0 0.00 0.00 0.00 43 1008.0
20260506044026 19 0.0 0.0 0.00 0.00 0.00 42 1008.0
20260506043131 20 0.0 0.0 0.00 0.00 0.00 41 1008.0
20260506042025 20 0.0 0.0 0.00 0.00 0.00 40 1007.8
20260506041018 20 0.0 0.0 0.00 0.00 0.00 40 1007.6
20260506040050 20 0.0 0.0 0.00 0.00 0.00 39 1007.4
20260506035015 20 0.0 0.0 0.00 0.00 0.00 38 1007.3
20260506034045 20 0.0 0.0 0.00 0.00 0.00 38 1007.3
20260506033032 20 0.0 0.0 0.00 0.00 0.00 37 1007.1
20260506032048 21 0.0 0.0 0.00 0.00 0.00 36 1007.0
20260506031020 21 0.0 0.0 0.00 0.00 0.00 36 1006.8
20260506030111 21 0.0 0.0 0.00 0.00 0.00 35 1006.9
20260506025015 21 0.0 0.0 0.00 0.00 0.00 34 1006.8
20260506024015 21 0.0 0.0 0.00 0.00 0.00 33 1006.5
20260506023016 21 0.0 0.0 0.00 0.00 0.00 32 1006.4
20260506022016 22 0.0 0.0 0.00 0.00 0.00 31 1006.2
20260506021015 22 0.0 0.0 0.00 0.00 0.00 30 1006.0
20260506020015 23 0.0 0.0 0.00 0.00 0.00 30 1005.9
20260506015040 23 0.0 0.0 0.00 0.00 0.00 28 1005.8
20260506014021 24 0.0 0.0 0.00 0.00 0.00 27 1005.8
20260506013036 24 0.0 0.0 0.00 0.00 0.00 27 1005.8
20260506012018 25 0.0 0.0 0.00 0.00 0.00 25 1005.8
20260506011023 25 0.0 0.0 0.00 0.00 0.00 26 1005.7
20260506010032 25 0.0 0.0 0.00 0.00 0.00 25 1005.6
20260506005050 25 0.0 0.0 0.00 0.00 0.00 28 1005.4
20260506004049 24 0.0 0.0 0.00 0.00 0.00 29 1005.4
20260506003100 24 0.0 0.0 0.00 0.00 0.00 29 1005.4
20260506002041 24 0.0 0.0 0.00 0.00 0.00 28 1005.3
20260506001027 25 0.0 0.0 0.00 0.00 0.00 26 1005.4
20260506000055 25 0.0 0.0 0.00 0.00 0.00 24 1005.2
20260505235150 25 0.0 0.0 0.00 0.00 0.00 24 1005.2
20260505234052 25 0.0 0.0 0.00 0.00 0.00 23 1005.1
20260505233032 25 0.0 0.0 0.00 0.00 0.00 24 1005.1
20260505232038 25 0.0 0.0 0.00 0.00 0.00 25 1005.1
20260505231025 24 0.0 0.0 0.00 0.00 0.00 25 1004.9
20260505230018 24 0.0 0.0 0.00 0.00 0.00 25 1005.0
20260505225033 24 0.0 0.0 0.00 0.00 0.00 24 1005.2
20260505224025 24 0.0 0.0 0.00 0.00 0.00 23 1005.2
20260505223017 24 0.0 0.0 0.00 0.00 0.00 23 1005.2
20260505222015 24 0.0 0.0 0.00 0.00 0.00 27 1005.3
20260505221023 24 0.0 0.0 0.00 0.00 0.00 28 1005.3
20260505220017 25 0.0 0.0 0.00 0.00 0.00 30 1005.2
20260505215015 25 0.0 0.0 0.00 0.00 0.00 30 1005.2
20260505214015 25 0.0 0.0 0.00 0.00 0.00 31 1005.4
20260505213018 25 0.0 0.0 0.00 0.00 0.00 30 1005.5
20260505212016 25 0.0 0.0 0.00 0.00 0.00 31 1005.6
20260505211015 25 0.0 0.0 0.00 0.00 0.00 32 1005.6
20260505210015 25 0.0 0.0 0.00 0.00 0.00 32 1005.7
20260505205023 25 0.0 0.0 0.00 0.00 0.00 31 1005.8
20260505204017 25 0.0 0.0 0.00 0.00 0.00 32 1005.8
20260505203036 25 0.0 0.0 0.00 0.00 0.00 33 1005.8
20260505202154 25 0.0 0.0 0.00 0.00 0.00 33 1005.9
20260505200054 25 0.0 0.0 0.00 0.00 0.00 35 1006.0
20260505195120 25 0.0 0.0 0.00 0.00 0.00 35 1006.1
20260505194112 25 0.0 0.0 0.00 0.00 0.00 35 1006.0
20260505193045 25 0.0 0.0 0.00 0.00 0.00 36 1005.9
20260505192018 25 0.0 0.0 0.00 0.00 0.00 37 1006.1
20260505191030 25 0.0 0.0 0.00 0.00 0.00 36 1006.2
20260505190056 25 0.0 0.0 0.00 0.00 0.00 38 1006.3
20260505185023 24 0.0 0.0 0.00 0.00 0.00 40 1006.5
20260505184102 24 0.0 0.0 0.00 0.00 0.00 41 1006.5
20260505183111 24 0.0 0.0 0.00 0.00 0.00 40 1006.5
20260505180056 23 0.0 0.0 0.00 0.00 0.00 43 1006.8
20260505175016 23 0.0 0.0 0.00 0.00 0.00 43 1006.8
20260505174015 23 0.0 0.0 0.00 0.00 0.00 45 1006.7
20260505173016 22 0.0 0.0 0.00 0.00 0.00 47 1006.7
20260505172015 23 0.0 0.0 0.00 0.00 0.00 47 1006.7
20260505171015 23 0.0 0.0 0.00 0.00 0.00 48 1006.7
20260505170015 22 0.0 0.0 0.00 0.00 0.00 51 1006.7
20260505165015 21 0.0 0.0 0.00 0.00 0.00 58 1006.6
20260505164015 22 0.0 0.0 0.00 0.00 0.00 67 1006.9
20260505163015 22 0.0 0.0 0.00 0.00 0.00 76 1007.2
20260505162016 22 0.0 0.0 0.00 0.00 0.00 77 1007.1
20260505161016 21 0.0 0.0 0.00 0.00 0.00 77 1007.0
20260505153026 20 0.0 0.0 0.00 0.00 0.00 91 1007.0
20260505152019 20 0.0 0.0 0.00 0.00 0.00 89 1007.0
20260505151100 20 0.0 0.0 0.00 0.00 0.00 96 1007.0
20260505124037 17 0.0 0.0 0.00 0.00 0.00 97 1005.4
20260505123048 17 0.0 0.0 0.00 0.00 0.00 97 1005.6
20260505122015 17 0.0 0.0 0.00 0.00 0.00 96 1005.6
20260505121025 17 0.0 0.0 0.00 0.00 0.00 97 1005.4
20260505120021 17 0.0 0.0 0.00 0.00 0.00 96 1005.7
20260505115027 17 0.0 0.0 0.00 0.00 0.00 96 1005.6
20260505114034 17 0.0 0.0 0.00 0.00 0.00 97 1005.4
20260505113022 17 0.0 0.0 0.00 0.00 0.00 98 1005.5
20260505112020 17 0.0 0.0 0.00 0.00 0.00 97 1005.4
20260505111028 17 0.0 0.0 0.00 0.00 0.00 97 1005.8